Decorah, IA

5:28 AM CST on December 14, 2019 (GMT -0600)
Decorah Municipal

Weather History for KDEH - October, 2019

Change the Weather History Date:

Saturday, October 19, 2019

  Actual Average Record
Temperature  
Mean Temperature 50 °F -  
Max Temperature 53 °F 57 °F 82 °F (2000)
Min Temperature 46 °F 34 °F 14 °F (1972)
Degree Days  
Heating Degree Days 16    
Moisture  
Dew Point 47 °F    
Average Humidity 90    
Maximum Humidity 100    
Minimum Humidity 67    
Precipitation  
Precipitation 0.12 in - - ()
Sea Level Pressure  
Sea Level Pressure 29.72 in    
Wind  
Wind Speed 7 mph ()    
Max Wind Speed 16 mph    
Max Gust Speed 23 mph    
Visibility 9.2 miles    
Events Rain    
Averages and records for this station are not official NWS values.
T = Trace of Precipitation, MM = Missing Value Source: Averaged Metar Reports

Daily Weather History Graph

Daily Weather History Graph

Search for Another Location

Airport or City:

Astronomy

Oct. 19, 2019 Rise Set
Actual Time 7:25 AM CDT 6:17 PM CDT
Civil Twilight 6:56 AM CDT 6:46 PM CDT
Nautical Twilight 6:23 AM CDT 7:19 PM CDT
Astronomical Twilight 5:50 AM CDT 7:52 PM CDT
Moon 10:20 PM CDT (10/19) 1:05 PM CDT (10/19)
Length of Visible Light 11h 50m
Length of Day
10h 52m
Waning Gibbous, 69% of the Moon is Illuminated
Oct 19
Waning Gibbous
Oct 21
Last Quarter
Oct 27
New
Nov 4
First Quarter
Nov 12
Full

Hourly Weather History & Observations

Time (CDT) Temp. Windchill Dew Point Humidity Pressure Visibility Wind Dir Wind Speed Gust Speed Precip Events Conditions
12:15 AM 53.6 °F - 42.8 °F 67% 29.72 in 10.0 mi South 16.1 mph 23.0 mph N/A   Clear
12:35 AM 53.6 °F - 42.8 °F 67% 29.72 in 10.0 mi South 12.7 mph 20.7 mph N/A   Clear
12:55 AM 53.6 °F - 42.8 °F 67% 29.72 in 10.0 mi South 12.7 mph 23.0 mph N/A   Clear
1:15 AM 51.8 °F - 42.8 °F 71% 29.72 in 10.0 mi SSE 9.2 mph 16.1 mph N/A   Clear
1:35 AM 51.8 °F - 42.8 °F 71% 29.72 in 10.0 mi South 9.2 mph 19.6 mph N/A   Clear
1:55 AM 51.8 °F - 42.8 °F 71% 29.71 in 10.0 mi South 9.2 mph 18.4 mph N/A   Clear
2:15 AM 51.8 °F - 42.8 °F 71% 29.70 in 10.0 mi South 12.7 mph 18.4 mph N/A   Clear
2:35 AM 51.8 °F - 42.8 °F 71% 29.69 in 10.0 mi South 11.5 mph 18.4 mph N/A   Clear
2:55 AM 51.8 °F - 42.8 °F 71% 29.69 in 10.0 mi South 12.7 mph 23.0 mph N/A   Clear
3:15 AM 51.8 °F - 42.8 °F 71% 29.68 in 10.0 mi South 13.8 mph 19.6 mph N/A   Clear
3:35 AM 51.8 °F - 42.8 °F 71% 29.68 in 10.0 mi South 12.7 mph 19.6 mph N/A   Clear
3:55 AM 50.0 °F - 42.8 °F 76% 29.68 in 10.0 mi South 12.7 mph 19.6 mph N/A   Clear
4:15 AM 50.0 °F - 42.8 °F 76% 29.67 in 10.0 mi South 12.7 mph 19.6 mph N/A   Clear
4:35 AM 50.0 °F - 42.8 °F 76% 29.68 in 10.0 mi South 10.4 mph 18.4 mph N/A   Clear
4:55 AM 50.0 °F - 42.8 °F 76% 29.68 in 10.0 mi South 10.4 mph 18.4 mph N/A   Clear
5:15 AM 50.0 °F - 42.8 °F 76% 29.67 in 10.0 mi South 9.2 mph - N/A   Partly Cloudy
5:35 AM 50.0 °F - 44.6 °F 82% 29.67 in 10.0 mi South 10.4 mph 16.1 mph N/A   Clear
5:55 AM 50.0 °F - 44.6 °F 82% 29.67 in 10.0 mi South 9.2 mph - N/A   Partly Cloudy
6:15 AM 50.0 °F - 44.6 °F 82% 29.68 in 10.0 mi South 9.2 mph - N/A   Scattered Clouds
6:35 AM 50.0 °F - 44.6 °F 82% 29.68 in 10.0 mi South 8.1 mph - N/A   Partly Cloudy
6:55 AM 50.0 °F - 44.6 °F 82% 29.67 in 10.0 mi South 6.9 mph 15.0 mph N/A   Mostly Cloudy
7:15 AM 50.0 °F - 44.6 °F 82% 29.68 in 10.0 mi South 6.9 mph - N/A   Mostly Cloudy
7:35 AM 50.0 °F - 44.6 °F 82% 29.68 in 10.0 mi South 9.2 mph - N/A   Scattered Clouds
7:55 AM 50.0 °F - 44.6 °F 82% 29.69 in 10.0 mi Variable 6.9 mph - N/A   Mostly Cloudy
8:15 AM 50.0 °F - 44.6 °F 82% 29.70 in 10.0 mi South 5.8 mph 11.5 mph N/A   Scattered Clouds
8:35 AM 50.0 °F - 44.6 °F 82% 29.71 in 10.0 mi Variable 4.6 mph - N/A   Scattered Clouds
8:55 AM 50.0 °F - 46.4 °F 87% 29.71 in 10.0 mi Variable 4.6 mph - N/A   Overcast
9:15 AM 50.0 °F - 46.4 °F 87% 29.71 in 10.0 mi SW 5.8 mph - N/A   Overcast
9:35 AM 50.0 °F - 46.4 °F 87% 29.70 in 10.0 mi Calm Calm - N/A   Overcast
9:55 AM 50.0 °F - 48.2 °F 94% 29.72 in 10.0 mi Variable 5.8 mph - N/A   Mostly Cloudy
10:15 AM 50.0 °F - 48.2 °F 94% 29.71 in 10.0 mi Variable 3.5 mph - N/A   Mostly Cloudy
10:35 AM 50.0 °F - 48.2 °F 94% 29.71 in 9.0 mi SW 4.6 mph - N/A   Mostly Cloudy
10:55 AM 50.0 °F - 50.0 °F 100% 29.72 in 9.0 mi Variable 3.5 mph - N/A   Overcast
11:15 AM 50.0 °F - 50.0 °F 100% 29.73 in 6.0 mi Calm Calm - N/A   Mostly Cloudy
11:35 AM 50.0 °F - 50.0 °F 100% 29.73 in 2.5 mi Calm Calm - N/A Rain Light Rain
11:55 AM 50.0 °F - 50.0 °F 100% 29.73 in 3.0 mi Variable 4.6 mph - 0.01 in   Light Drizzle
12:15 PM 50.0 °F - 50.0 °F 100% 29.73 in 3.0 mi Calm Calm - N/A Rain Light Rain
12:35 PM 50.0 °F - 50.0 °F 100% 29.72 in 4.0 mi NW 4.6 mph - N/A   Light Drizzle
12:55 PM 50.0 °F - 50.0 °F 100% 29.72 in 4.0 mi NW 3.5 mph - 0.06 in Rain Light Rain
1:15 PM 50.0 °F - 50.0 °F 100% 29.72 in 5.0 mi Calm Calm - N/A Rain Light Rain
1:35 PM 50.0 °F - 50.0 °F 100% 29.72 in 5.0 mi Calm Calm - N/A Rain Light Rain
1:55 PM 50.0 °F - 50.0 °F 100% 29.72 in 5.0 mi Calm Calm - 0.05 in Rain Light Rain
2:15 PM 51.8 °F - 51.8 °F 100% 29.72 in 7.0 mi Calm Calm - N/A Rain Light Rain
2:35 PM 51.8 °F - 51.8 °F 100% 29.71 in 8.0 mi Calm Calm - N/A Rain Light Rain
3:15 PM 51.8 °F - 51.8 °F 100% 29.71 in 10.0 mi Calm Calm - N/A   Mostly Cloudy
3:35 PM 51.8 °F - 51.8 °F 100% 29.71 in 10.0 mi Calm Calm - N/A   Mostly Cloudy
3:55 PM 51.8 °F - 51.8 °F 100% 29.71 in 10.0 mi Calm Calm - N/A   Mostly Cloudy
4:15 PM 51.8 °F - 51.8 °F 100% 29.72 in 10.0 mi Calm Calm - N/A   Mostly Cloudy
4:35 PM 53.6 °F - 51.8 °F 94% 29.72 in 10.0 mi Variable 3.5 mph - N/A   Mostly Cloudy
4:55 PM 53.6 °F - 50.0 °F 88% 29.72 in 10.0 mi Calm Calm - N/A   Overcast
5:15 PM 53.6 °F - 50.0 °F 88% 29.72 in 10.0 mi Calm Calm - N/A   Mostly Cloudy
5:35 PM 53.6 °F - 50.0 °F 88% 29.73 in 10.0 mi Calm Calm - N/A   Clear
5:55 PM 51.8 °F - 50.0 °F 94% 29.73 in 10.0 mi SSE 3.5 mph - N/A   Clear
6:15 PM 50.0 °F - 50.0 °F 100% 29.73 in 10.0 mi SSE 3.5 mph - N/A   Clear
6:35 PM 50.0 °F - 48.2 °F 94% 29.74 in 10.0 mi Calm Calm - N/A   Clear
6:55 PM 48.2 °F - 48.2 °F 100% 29.74 in 10.0 mi SSE 4.6 mph - N/A   Clear
7:15 PM 48.2 °F - 48.2 °F 100% 29.74 in 10.0 mi South 4.6 mph - N/A   Clear
7:35 PM 48.2 °F - 48.2 °F 100% 29.75 in 10.0 mi South 4.6 mph - N/A   Clear
7:55 PM 46.4 °F 44.3 °F 46.4 °F 100% 29.75 in 10.0 mi South 4.6 mph - N/A   Clear
8:15 PM 48.2 °F - 48.2 °F 100% 29.75 in 10.0 mi South 4.6 mph - N/A   Clear
8:35 PM 48.2 °F - 48.2 °F 100% 29.75 in 10.0 mi South 4.6 mph - N/A   Clear
8:55 PM 46.4 °F 43.5 °F 46.4 °F 100% 29.76 in 10.0 mi South 5.8 mph - N/A   Clear
9:15 PM 46.4 °F 44.3 °F 46.4 °F 100% 29.76 in 10.0 mi South 4.6 mph - N/A   Clear
9:35 PM 46.4 °F 45.2 °F 46.4 °F 100% 29.76 in 10.0 mi South 3.5 mph - N/A   Clear
9:55 PM 46.4 °F 45.2 °F 46.4 °F 100% 29.76 in 10.0 mi South 3.5 mph - N/A   Clear
10:15 PM 46.4 °F 45.2 °F 46.4 °F 100% 29.77 in 10.0 mi SW 3.5 mph - N/A   Clear
10:35 PM 46.4 °F - 46.4 °F 100% 29.77 in 10.0 mi Calm Calm - N/A   Clear
10:55 PM 46.4 °F - 46.4 °F 100% 29.77 in 10.0 mi Calm Calm - N/A   Clear
11:15 PM 46.4 °F 45.2 °F 46.4 °F 100% 29.77 in 10.0 mi SSW 3.5 mph - N/A   Clear
11:35 PM 46.4 °F - 46.4 °F 100% 29.77 in 10.0 mi Calm Calm - N/A   Clear
11:55 PM 46.4 °F - 46.4 °F 100% 29.77 in 10.0 mi Calm Calm - N/A   Clear